[[{"header":{"parameterUnit":"m.s-1","parameterCategory":1,"la1":30.2991,"la2":30.254,"lo1":-89.0895,"lo2":-89.0444,"dy":0.0017,"dx":0.0017,"nx":28,"ny":28,"refTime":"2024-04-22T09:00:00:Z","depth":0,"parameterNumber":2,"parameterNumberName":"U-component_of_WINDS"},"data":[0,0,0,0,0,0,0,0,0,0,0,0,0,0,0,0,0,0,0,0,0,0,0,0,0,0,0,0,0,0,0,0,0,0,0,0,0,0,0,0,0,0,0,0,0,0,0,0,0,0,0,0,0,0,0,0,0,0,0.0943,0.0942,0,0.0881,0.088,0.0879,0.0863,0.0863,0.0864,0.0864,0.0799,0.0797,0.0795,0,0,0,0,0,0,0,0,0,0,0,0,0,0.1047,0.1045,0.0943,0.0942,0.0941,0.0881,0.088,0.0879,0.0863,0.0863,0.0864,0.0864,0.08,0.0797,0.0795,0,0,0,0,0,0,0,0,0,0,0,0,0,0.0995,0.1045,0.0943,0.0926,0.0924,0.0881,0.088,0.0879,0.0863,0.0863,0.0864,0.0865,0.0801,0.0798,0.0794,0.0763,0,0,0.0785,0.0783,0,0,0,0,0,0,0,0,0.0998,0.0991,0.0929,0.0927,0.0925,0.088,0.0893,0.084,0.0863,0.0886,0.0864,0.0865,0.0826,0.082,0.0807,0.076,0.0758,0.0785,0.0783,0.0781,0.078,0,0,0,0,0,0,0,0.1002,0.0994,0.0918,0.0928,0.0926,0.0921,0.0915,0.0883,0.0853,0.0884,0.0883,0.0876,0.0824,0.081,0.0806,0.0757,0.0785,0.0782,0.078,0.0779,0.0682,0.0681,0,0,0,0,0,0,0.1008,0.0997,0.092,0.0916,0.0964,0.0919,0.0911,0.0894,0.0854,0.0848,0.0875,0.0875,0.0816,0.0809,0.0803,0.0765,0.0781,0.0778,0.0777,0.0683,0.0682,0.0681,0,0,0,0,0,0,0.1011,0.1002,0.0923,0.0956,0.0946,0.0917,0.0897,0.0892,0.0878,0.0847,0.0841,0.0866,0.0816,0.0808,0.0774,0.0762,0.0777,0.0774,0.0683,0.0682,0.0681,0.0687,0,0,0,0,0,0,0.1014,0.1003,0.099,0.0956,0.0944,0.0894,0.0896,0.0891,0.0873,0.0872,0.0837,0.0832,0.0816,0.0779,0.0771,0.0758,0.0772,0.0684,0.0683,0.0682,0.0687,0.0686,0.0685,0,0,0,0,0,0.1018,0.0994,0.099,0.0981,0.0928,0.0893,0.0887,0.0869,0.0872,0.086,0.084,0.0833,0.0765,0.0775,0.0766,0.0752,0.0685,0.0683,0.0682,0.0688,0.0686,0.0685,0,0,0,0,0,0,0.1026,0.0989,0.0984,0.0949,0.0925,0.0891,0.0874,0.0867,0.0841,0.0841,0.082,0.0812,0.078,0.0763,0.0775,0.0721,0.0725,0.0722,0.0733,0.0731,0.073,0.0734,0.0769,0,0,0,0,0,0.1025,0.1,0.0968,0.094,0.0928,0.0904,0.0888,0.0876,0.085,0.0839,0.0817,0.0791,0.0764,0.0747,0.072,0.0686,0.0678,0.0672,0.067,0.067,0.0666,0.0647,0.0644,0.0676,0.0676,0.0676,0,0,0.102,0.0996,0.0982,0.0941,0.0921,0.0896,0.0895,0.0868,0.0848,0.0835,0.0802,0.0785,0.0755,0.072,0.0704,0.0705,0.0656,0.0668,0.0667,0.0664,0.0645,0.0643,0.064,0.0675,0.0675,0.0675,0,0,0.0998,0.0978,0.0952,0.0933,0.0903,0.0887,0.0881,0.0849,0.0837,0.0803,0.0793,0.077,0.0724,0.0703,0.0687,0.0659,0.0652,0.0651,0.0644,0.0626,0.0623,0.0621,0.0611,0.0608,0.0649,0.0649,0.0649,0,0.0996,0.0957,0.094,0.0914,0.0896,0.0885,0.0859,0.084,0.0803,0.0791,0.0793,0.0736,0.0715,0.0676,0.0669,0.0656,0.0649,0.0654,0.0625,0.0622,0.062,0.061,0.0607,0.0649,0.0649,0.0649,0.0649,0,0.0956,0.0929,0.0912,0.0878,0.0858,0.0832,0.0812,0.0794,0.0785,0.0769,0.0736,0.071,0.0679,0.0669,0.0659,0.0629,0.0631,0.0629,0.0633,0.0617,0.0608,0.0604,0.0649,0.0649,0.0649,0.0649,0,0,0.0936,0.0893,0.0887,0.0872,0.0839,0.0818,0.0792,0.0762,0.0747,0.0723,0.07,0.0662,0.0661,0.0643,0.0631,0.0615,0.0595,0.0615,0.0614,0.0612,0.056,0.0561,0.0557,0.0591,0.059,0.0589,0.0562,0,0.0909,0.0862,0.0847,0.0808,0.0784,0.0773,0.075,0.0728,0.0713,0.069,0.0673,0.0646,0.0647,0.0636,0.062,0.0601,0.0584,0.0603,0.0569,0.0568,0.0576,0.0552,0.0552,0.0528,0.0559,0.0558,0.0558,0,0.0872,0.0847,0.0806,0.0777,0.0767,0.0746,0.0718,0.0696,0.0671,0.0661,0.0641,0.0631,0.0604,0.061,0.0572,0.0585,0.0571,0.056,0.0559,0.0554,0.0561,0.0546,0.0519,0.0515,0.0552,0.0552,0.0553,0,0.0861,0.0818,0.0788,0.0775,0.0741,0.0727,0.0712,0.0687,0.067,0.0646,0.0635,0.0607,0.0592,0.0571,0.0554,0.056,0.0518,0.0522,0.0508,0.0509,0.0498,0.0499,0.0469,0.0491,0.0491,0.0491,0.0491,0,0.0832,0.0807,0.0783,0.0764,0.0736,0.0719,0.0692,0.0676,0.0655,0.0633,0.0622,0.0602,0.0581,0.0558,0.0545,0.0516,0.0509,0.05,0.0497,0.0501,0.0502,0.049,0.0491,0.049,0.049,0.0491,0.0491,0,0.0815,0.0797,0.0764,0.0735,0.0727,0.0708,0.0683,0.0664,0.065,0.0622,0.0615,0.0592,0.0564,0.0546,0.051,0.0502,0.047,0.0467,0.0478,0.0476,0.0463,0.0465,0.0423,0.0417,0.0444,0.0444,0.0444,0,0.0797,0.0778,0.0747,0.0732,0.0718,0.0693,0.0677,0.066,0.0643,0.0614,0.0599,0.0571,0.0548,0.0505,0.0485,0.0458,0.0454,0.0442,0.045,0.0455,0.0453,0.0454,0.0452,0.044,0.044,0.044,0.044,0,0.0767,0.076,0.0737,0.0711,0.0692,0.067,0.0648,0.0637,0.0616,0.0598,0.057,0.0553,0.0517,0.049,0.0462,0.0446,0.0439,0.0438,0.0433,0.0436,0.0443,0.0439,0.0474,0.0438,0.0438,0.0438,0.0438,0.0438,0.0749,0.0731,0.0708,0.0682,0.0665,0.0645,0.0627,0.0611,0.0587,0.0558,0.055,0.0521,0.0497,0.0459,0.0443,0.0421,0.0422,0.0415,0.0413,0.0411,0.0411,0.0448,0.0415,0.0415,0.0415,0.0415,0.0415,0,0.0718,0.0703,0.068,0.0651,0.0631,0.0628,0.0604,0.0588,0.0563,0.0541,0.0519,0.0488,0.0462,0.0441,0.0414,0.04,0.0396,0.0393,0.0393,0.039,0.0412,0.0418,0.0397,0.0397,0.0397,0.0397,0.0397,0.0397,0.07,0.0671,0.0661,0.0623,0.0608,0.058,0.0567,0.0549,0.0532,0.0498,0.0477,0.0463,0.0442,0.0414,0.039,0.0384,0.0375,0.0373,0.0366,0.0386,0.0388,0.039,0.0396,0.0371,0.0371,0.0346,0.0346,0.0346]},{"header":{"parameterUnit":"m.s-1","parameterCategory":1,"la1":30.2991,"la2":30.254,"lo1":-89.0895,"lo2":-89.0444,"dy":0.0017,"dx":0.0017,"nx":28,"ny":28,"refTime":"2024-04-22T09:00:00:Z","depth":0,"parameterNumber":3,"parameterNumberName":"V-component_of_WINDS"},"data":[0,0,0,0,0,0,0,0,0,0,0,0,0,0,0,0,0,0,0,0,0,0,0,0,0,0,0,0,0,0,0,0,0,0,0,0,0,0,0,0,0,0,0,0,0,0,0,0,0,0,0,0,0,0,0,0,0,0,-7.6471,-7.6471,0,-7.6496,-7.6496,-7.6497,-7.6339,-7.6334,-7.633,-7.6326,-7.6349,-7.6353,-7.6358,0,0,0,0,0,0,0,0,0,0,0,0,0,-7.6283,-7.6287,-7.6471,-7.6471,-7.6472,-7.6496,-7.6497,-7.6497,-7.634,-7.6334,-7.6329,-7.6324,-7.6347,-7.6353,-7.6359,0,0,0,0,0,0,0,0,0,0,0,0,0,-7.6342,-7.6288,-7.6471,-7.6396,-7.639,-7.6496,-7.6497,-7.6497,-7.6341,-7.6334,-7.6327,-7.6321,-7.6345,-7.6352,-7.6359,-7.6538,0,0,-7.6381,-7.6384,0,0,0,0,0,0,0,0,-7.6339,-7.6349,-7.6407,-7.6401,-7.6394,-7.6408,-7.6438,-7.6511,-7.6342,-7.6359,-7.6326,-7.6318,-7.6374,-7.6378,-7.6397,-7.6539,-7.654,-7.6382,-7.6386,-7.6389,-7.6391,0,0,0,0,0,0,0,-7.6335,-7.6347,-7.6481,-7.6408,-7.64,-7.636,-7.6361,-7.6451,-7.6404,-7.6357,-7.6346,-7.6351,-7.6369,-7.6391,-7.6397,-7.654,-7.6382,-7.6388,-7.6392,-7.6395,-7.6828,-7.6835,0,0,0,0,0,0,-7.6341,-7.6345,-7.648,-7.6481,-7.635,-7.6369,-7.637,-7.641,-7.6402,-7.6395,-7.6357,-7.6344,-7.6382,-7.6389,-7.6397,-7.6604,-7.6389,-7.6396,-7.64,-7.6821,-7.683,-7.6838,0,0,0,0,0,0,-7.6338,-7.6355,-7.6479,-7.641,-7.6423,-7.6379,-7.6426,-7.6414,-7.6436,-7.6402,-7.6392,-7.6388,-7.6377,-7.6387,-7.6504,-7.6603,-7.6399,-7.6406,-7.6813,-7.6824,-7.6834,-7.7022,0,0,0,0,0,0,-7.6333,-7.6354,-7.6423,-7.6413,-7.6427,-7.6587,-7.6432,-7.6419,-7.6449,-7.6432,-7.6429,-7.6422,-7.6372,-7.6494,-7.6511,-7.6609,-7.6411,-7.6803,-7.6818,-7.683,-7.7007,-7.7038,-7.7065,0,0,0,0,0,-7.6327,-7.6474,-7.6427,-7.6444,-7.6512,-7.6593,-7.6601,-7.6542,-7.6458,-7.6525,-7.6503,-7.6422,-7.659,-7.6507,-7.6525,-7.6627,-7.6797,-7.6814,-7.6829,-7.6994,-7.7032,-7.7064,0,0,0,0,0,0,-7.6496,-7.6472,-7.6419,-7.6568,-7.6584,-7.6566,-7.665,-7.6584,-7.6624,-7.6606,-7.653,-7.653,-7.666,-7.6655,-7.6564,-7.6799,-7.6678,-7.6699,-7.6797,-7.6833,-7.6862,-7.686,-7.6417,0,0,0,0,0,-7.6551,-7.662,-7.6595,-7.6728,-7.6739,-7.6694,-7.6727,-7.668,-7.6693,-7.6699,-7.6685,-7.67,-7.6756,-7.6794,-7.6844,-7.7005,-7.7002,-7.7084,-7.7113,-7.7137,-7.7156,-7.724,-7.7276,-7.6891,-7.6891,-7.689,0,0,-7.6664,-7.666,-7.6708,-7.6762,-7.6769,-7.6841,-7.67,-7.6783,-7.6835,-7.6711,-7.6821,-7.6812,-7.6823,-7.6963,-7.7024,-7.6963,-7.7261,-7.7158,-7.7177,-7.7182,-7.726,-7.7297,-7.7329,-7.6902,-7.69,-7.6898,0,0,-7.6908,-7.6912,-7.7023,-7.7034,-7.7046,-7.7015,-7.7042,-7.7035,-7.7024,-7.7133,-7.7041,-7.7102,-7.72,-7.7212,-7.7231,-7.748,-7.7406,-7.7498,-7.7649,-7.7732,-7.7762,-7.7789,-7.7877,-7.7909,-7.7517,-7.7517,-7.7517,0,-7.7047,-7.7154,-7.7089,-7.7178,-7.7204,-7.7096,-7.7207,-7.722,-7.7248,-7.7268,-7.7199,-7.732,-7.732,-7.7461,-7.7522,-7.7541,-7.7569,-7.7498,-7.7763,-7.7789,-7.7813,-7.7896,-7.7929,-7.7528,-7.7527,-7.7526,-7.7525,0,-7.7323,-7.7399,-7.7487,-7.7518,-7.7554,-7.7654,-7.7604,-7.7648,-7.7598,-7.7574,-7.7686,-7.7682,-7.7729,-7.7759,-7.7711,-7.7894,-7.7855,-7.7777,-7.7654,-7.7862,-7.7938,-7.797,-7.7544,-7.754,-7.7537,-7.7534,0,0,-7.7674,-7.7668,-7.7702,-7.7714,-7.772,-7.7776,-7.7871,-7.7918,-7.7957,-7.798,-7.8056,-7.8142,-7.8069,-7.8091,-7.8043,-7.8116,-7.8313,-7.8028,-7.8027,-7.808,-7.8512,-7.8571,-7.8609,-7.8264,-7.827,-7.8275,-7.8511,0,-7.7911,-7.8074,-7.8018,-7.8183,-7.8251,-7.8149,-7.8231,-7.8244,-7.8224,-7.8278,-7.8254,-7.8316,-7.8216,-7.8228,-7.8296,-7.8275,-7.8398,-7.8257,-7.8334,-7.8337,-7.8333,-7.8649,-7.8712,-7.8935,-7.8541,-7.8546,-7.8549,0,-7.821,-7.8246,-7.8419,-7.8413,-7.8439,-7.8514,-7.8552,-7.8605,-7.8617,-7.8597,-7.8622,-7.8558,-7.8649,-7.8528,-7.8652,-7.8557,-7.8585,-7.8579,-7.8586,-7.859,-7.8456,-7.8661,-7.9005,-7.9039,-7.8596,-7.8592,-7.8589,0,-7.8448,-7.8539,-7.8654,-7.8668,-7.8664,-7.8719,-7.872,-7.8724,-7.8756,-7.8789,-7.8808,-7.8852,-7.8875,-7.891,-7.8859,-7.8775,-7.899,-7.8864,-7.8975,-7.8977,-7.9025,-7.9022,-7.9377,-7.9045,-7.9044,-7.9044,-7.9043,0,-7.8718,-7.8827,-7.876,-7.8831,-7.895,-7.8884,-7.9003,-7.8992,-7.8998,-7.9063,-7.8978,-7.9041,-7.8971,-7.9027,-7.8988,-7.9096,-7.9108,-7.9094,-7.9082,-7.9101,-7.9103,-7.9118,-7.9101,-7.9052,-7.9051,-7.9049,-7.9047,0,-7.9003,-7.8963,-7.9081,-7.9068,-7.9067,-7.9156,-7.9144,-7.9208,-7.9182,-7.9266,-7.9282,-7.9241,-7.9303,-7.9256,-7.9317,-7.9291,-7.9434,-7.94,-7.943,-7.9421,-7.9534,-7.9524,-7.9911,-7.9958,-7.9596,-7.96,-7.9603,0,-7.9179,-7.926,-7.9256,-7.9295,-7.9301,-7.9364,-7.9396,-7.9335,-7.9371,-7.939,-7.9452,-7.9507,-7.9547,-7.9651,-7.9626,-7.9672,-7.9639,-7.9771,-7.9645,-7.9662,-7.964,-7.9636,-7.9643,-7.9797,-7.9801,-7.9804,-7.9807,0,-7.9494,-7.947,-7.9519,-7.9563,-7.9604,-7.9635,-7.9658,-7.9695,-7.9632,-7.9677,-7.974,-7.9772,-7.9834,-7.989,-7.9927,-7.9926,-7.9857,-7.9847,-7.9875,-7.9895,-7.9909,-7.9903,-7.9499,-7.9838,-7.9835,-7.9833,-7.9831,-7.983,-7.9728,-7.9796,-7.9804,-7.9862,-7.9874,-7.9898,-7.9958,-7.994,-7.9991,-8.0038,-7.9998,-8.0074,-8.0082,-8.0125,-8.0133,-8.019,-8.0135,-8.0176,-8.0186,-8.0197,-8.0213,-7.9901,-8.0197,-8.0196,-8.0195,-8.0194,-8.0193,0,-8.0038,-8.0038,-8.0093,-8.0129,-8.0175,-8.0107,-8.0129,-8.0172,-8.024,-8.0254,-8.0296,-8.0368,-8.0421,-8.0401,-8.0447,-8.0497,-8.0466,-8.0511,-8.0506,-8.0507,-8.026,-8.023,-8.0535,-8.0535,-8.0535,-8.0535,-8.0535,-8.0535,-8.0205,-8.0315,-8.0293,-8.0408,-8.0406,-8.048,-8.0499,-8.0521,-8.0532,-8.0616,-8.066,-8.0647,-8.0647,-8.0693,-8.0739,-8.0731,-8.0752,-8.0809,-8.079,-8.0559,-8.0525,-8.0493,-8.0465,-8.0814,-8.0814,-8.1032,-8.1034,-8.1036]}]]